EDT,Max TemperatureF,Mean TemperatureF,Min TemperatureF,Max Dew PointF,MeanDew PointF,Min DewpointF,Max Humidity, Mean Humidity, Min Humidity, Max Sea Level PressureIn, Mean Sea Level PressureIn, Min Sea Level PressureIn, Max VisibilityMiles, Mean VisibilityMiles, Min VisibilityMiles, Max Wind SpeedMPH, Mean Wind SpeedMPH, Max Gust SpeedMPH,PrecipitationIn, CloudCover, Events, WindDirDegrees
2013-4-1,63,53,42,43,33,19,86,59,32,29.99,29.83,29.77,10,10,10,17,6,29,T,3,,269
2013-4-2,52,44,35,16,10,4,40,27,14,30.17,30.08,30.00,10,10,10,14,6,23,0.00,0,,302
2013-4-3,55,41,26,19,10,4,63,38,13,30.36,30.24,30.17,10,10,10,15,7,23,0.00,0,,328
2013-4-4,46,36,26,34,19,9,96,59,22,30.42,30.28,30.06,10,9,4,17,2,20,0.28,3,Rain,179
2013-4-5,65,50,35,41,32,24,100,61,22,30.03,29.94,29.84,10,6,2,14,4,26,0.18,5,Rain,333
2013-4-6,58,47,36,26,18,11,49,33,17,30.30,30.22,30.05,10,10,10,14,4,28,0.00,0,,76
2013-4-7,72,56,39,40,34,23,62,47,31,30.25,30.13,30.00,10,10,10,23,11,30,0.00,0,,193
2013-4-8,81,66,50,48,43,39,71,48,25,30.08,30.02,29.94,10,10,10,22,9,29,0.00,1,,199
2013-4-9,86,72,58,51,49,48,69,50,31,30.09,30.02,29.95,10,10,10,17,7,25,0.00,0,,202
2013-4-10,91,76,61,54,52,50,63,45,27,29.99,29.91,29.81,10,10,10,21,8,28,0.00,0,,204
2013-4-11,86,74,62,57,54,52,67,51,34,29.87,29.79,29.71,10,10,10,21,9,29,0.00,0,,186
2013-4-12,80,70,60,64,57,35,93,61,29,29.72,29.64,29.54,10,8,2,22,8,29,1.06,6,Rain-Thunderstorm,202
2013-4-13,73,59,45,38,30,19,61,40,18,29.95,29.87,29.76,10,10,10,17,4,25,0.00,0,,282
2013-4-14,74,62,49,41,32,22,49,37,24,30.09,30.04,29.97,10,10,10,14,5,17,0.00,0,,76
2013-4-15,60,56,51,54,51,41,96,74,51,30.27,30.20,30.09,10,8,2,9,4,12,0.21,8,Rain,41
2013-4-16,72,63,54,57,55,52,100,79,57,30.31,30.23,30.15,10,8,2,15,6,20,0.01,6,,202
2013-4-17,83,72,60,61,57,55,90,66,42,30.18,30.14,30.09,10,10,9,14,5,17,T,3,Rain,104
2013-4-18,79,69,59,62,57,53,93,70,46,30.20,30.13,29.98,10,6,2,20,7,28,0.09,7,Rain,81
2013-4-19,75,65,55,66,60,38,93,70,47,29.96,29.76,29.63,10,9,0,26,13,33,0.73,8,Fog-Rain,190
2013-4-20,62,53,44,35,25,20,50,36,21,30.31,30.06,29.78,10,10,10,15,6,26,0.00,1,,312
2013-4-21,54,45,36,28,26,24,70,53,35,30.56,30.49,30.34,10,10,10,17,6,22,0.00,0,,50
2013-4-22,58,45,32,37,31,27,82,60,38,30.55,30.45,30.35,10,10,10,17,7,18,0.00,2,,56
2013-4-23,64,55,46,44,40,35,80,64,48,30.36,30.23,30.11,10,10,10,10,5,17,0.00,4,,44
2013-4-24,77,60,43,56,48,41,96,67,38,30.12,29.97,29.82,10,10,8,25,9,37,0.08,1,Rain,214
2013-4-25,67,56,45,41,31,22,58,39,19,30.30,30.19,29.99,10,10,10,16,6,28,0.00,1,,316
2013-4-26,67,52,37,37,33,27,82,55,28,30.45,30.37,30.31,10,10,10,13,4,17,0.00,1,,99
2013-4-27,71,58,44,43,39,37,76,54,31,30.39,30.33,30.25,10,10,10,14,4,24,0.00,0,,127
2013-4-28,57,54,51,52,46,40,93,72,51,30.26,30.21,30.12,10,9,5,10,3,15,0.10,7,Rain,165
2013-4-29,65,58,51,56,53,49,100,86,72,30.15,30.06,30.00,10,6,1,12,5,15,0.25,8,Rain,31
2013-4-30,65,59,53,57,53,51,93,80,67,30.28,30.17,30.06,10,9,2,15,8,25,0.03,8,Rain,45